Time,TemperatureF,DewpointF,PressureIn,WindDirection,WindDirectionDegrees,WindSpeedMPH,WindSpeedGustMPH,Humidity,HourlyPrecipIn,Conditions,Clouds,dailyrainin,SoftwareType,DateUTC
2013-09-15 00:02:00,-999.0,-99.9,30.06,North,5,0.0,0.0,-999,-99.99,,,-99.99,,2013-09-15 04:02:00,
2013-09-15 00:14:00,60.0,58.0,30.06,North,5,0.0,0.0,93,0.00,,,0.00,,2013-09-15 04:14:00,
2013-09-15 00:24:00,59.0,57.0,30.06,North,5,0.0,0.0,92,0.00,,,0.00,,2013-09-15 04:24:00,
2013-09-15 00:43:00,59.0,57.0,30.06,North,5,0.0,0.0,93,0.00,,,0.00,,2013-09-15 04:43:00,
2013-09-15 00:55:00,59.0,57.0,30.06,North,5,0.0,0.0,94,0.00,,,0.00,,2013-09-15 04:55:00,
2013-09-15 01:13:00,59.0,57.0,30.07,North,5,0.0,0.0,94,0.00,,,0.00,,2013-09-15 05:13:00,
2013-09-15 01:22:00,59.0,57.0,30.07,North,5,0.0,0.0,93,0.00,,,0.00,,2013-09-15 05:22:00,
2013-09-15 01:42:00,58.0,56.0,30.07,North,5,0.0,0.0,94,0.00,,,0.00,,2013-09-15 05:42:00,
2013-09-15 01:52:00,58.0,56.0,30.07,North,5,0.0,0.0,94,0.00,,,0.00,,2013-09-15 05:52:00,
2013-09-15 02:12:00,58.0,56.0,30.07,North,5,0.0,0.0,94,0.00,,,0.00,,2013-09-15 06:12:00,
2013-09-15 02:21:00,58.0,56.0,30.07,North,5,0.0,0.0,94,0.00,,,0.00,,2013-09-15 06:21:00,
2013-09-15 02:42:00,58.0,56.0,30.08,North,5,0.0,0.0,94,0.00,,,0.00,,2013-09-15 06:42:00,
2013-09-15 02:52:00,58.0,57.0,30.08,North,5,0.0,0.0,95,0.00,,,0.00,,2013-09-15 06:52:00,
2013-09-15 03:11:00,59.0,58.0,30.08,North,5,0.0,0.0,96,0.00,,,0.00,,2013-09-15 07:11:00,
2013-09-15 03:22:00,59.0,58.0,30.08,North,5,0.0,0.0,96,0.00,,,0.00,,2013-09-15 07:22:00,
2013-09-15 03:42:00,59.0,58.0,30.08,North,5,0.0,0.0,96,0.00,,,0.00,,2013-09-15 07:42:00,
2013-09-15 03:53:00,59.0,58.0,30.08,North,5,0.0,0.0,96,0.00,,,0.00,,2013-09-15 07:53:00,
2013-09-15 04:11:00,60.0,59.0,30.08,North,5,0.0,0.0,96,0.00,,,0.00,,2013-09-15 08:11:00,
2013-09-15 04:22:00,60.0,59.0,30.09,North,5,0.0,0.0,95,0.00,,,0.00,,2013-09-15 08:22:00,
2013-09-15 04:43:00,60.0,59.0,30.09,North,5,0.0,1.0,95,0.00,,,0.00,,2013-09-15 08:43:00,
2013-09-15 04:52:00,60.0,58.0,30.09,North,5,0.0,0.0,94,0.00,,,0.00,,2013-09-15 08:52:00,
2013-09-15 05:12:00,60.0,58.0,30.09,North,5,0.0,0.0,93,0.00,,,0.00,,2013-09-15 09:12:00,
2013-09-15 05:22:00,60.0,58.0,30.10,North,5,0.0,0.0,93,0.00,,,0.00,,2013-09-15 09:22:00,
2013-09-15 05:43:00,59.0,57.0,30.10,North,5,0.0,0.0,94,0.00,,,0.00,,2013-09-15 09:43:00,
2013-09-15 05:53:00,59.0,57.0,30.10,North,5,0.0,0.0,94,0.00,,,0.00,,2013-09-15 09:53:00,
2013-09-15 06:13:00,59.0,58.0,30.11,North,5,0.0,0.0,95,0.00,,,0.00,,2013-09-15 10:13:00,
2013-09-15 06:23:00,59.0,58.0,30.11,North,5,0.0,0.0,95,0.00,,,0.00,,2013-09-15 10:23:00,
2013-09-15 06:43:00,59.0,58.0,30.11,North,5,0.0,0.0,95,0.00,,,0.00,,2013-09-15 10:43:00,
2013-09-15 06:53:00,59.0,58.0,30.11,North,5,0.0,0.0,95,0.00,,,0.00,,2013-09-15 10:53:00,
2013-09-15 07:12:00,60.0,59.0,30.11,North,5,0.0,0.0,95,0.00,,,0.00,,2013-09-15 11:12:00,
2013-09-15 07:22:00,60.0,58.0,30.12,North,5,0.0,0.0,94,0.00,,,0.00,,2013-09-15 11:22:00,
2013-09-15 07:42:00,60.0,58.0,30.12,North,5,0.0,0.0,94,0.00,,,0.00,,2013-09-15 11:42:00,
2013-09-15 07:52:00,60.0,58.0,30.13,North,5,0.0,0.0,94,0.00,,,0.00,,2013-09-15 11:52:00,
2013-09-15 08:12:00,60.0,58.0,30.13,North,5,0.0,0.0,94,0.00,,,0.00,,2013-09-15 12:12:00,
2013-09-15 08:21:00,59.0,57.0,30.13,North,5,0.0,0.0,94,0.00,,,0.00,,2013-09-15 12:21:00,
2013-09-15 08:42:00,59.0,58.0,30.13,North,5,0.0,0.0,95,0.00,,,0.00,,2013-09-15 12:42:00,
2013-09-15 08:52:00,59.0,58.0,30.14,North,5,0.0,0.0,95,0.00,,,0.00,,2013-09-15 12:52:00,
2013-09-15 09:11:00,59.0,58.0,30.14,North,5,0.0,0.0,96,0.00,,,0.00,,2013-09-15 13:11:00,
2013-09-15 09:22:00,60.0,59.0,30.14,North,5,0.0,0.0,97,0.00,,,0.00,,2013-09-15 13:22:00,
2013-09-15 09:53:00,63.0,60.0,30.14,North,5,0.0,4.0,91,0.00,,,0.00,,2013-09-15 13:53:00,
2013-09-15 10:12:00,65.0,60.0,30.15,North,5,0.0,4.0,85,0.00,,,0.00,,2013-09-15 14:12:00,
2013-09-15 10:22:00,67.0,60.0,30.15,North,5,0.0,5.0,79,0.00,,,0.00,,2013-09-15 14:22:00,
2013-09-15 15:22:00,81.0,64.0,30.09,North,5,1.0,4.0,57,0.00,,,0.00,,2013-09-15 19:22:00,
2013-09-15 15:52:00,80.0,64.0,30.09,North,5,1.0,4.0,58,0.00,,,0.00,,2013-09-15 19:52:00,
2013-09-15 16:11:00,81.0,65.0,30.08,North,5,0.0,4.0,58,0.00,,,0.00,,2013-09-15 20:11:00,
2013-09-15 16:22:00,82.0,65.0,30.07,North,5,2.0,4.0,57,0.00,,,0.00,,2013-09-15 20:22:00,
2013-09-15 16:42:00,82.0,65.0,30.07,North,5,1.0,6.0,57,0.00,,,0.00,,2013-09-15 20:42:00,
2013-09-15 16:53:00,81.0,65.0,30.06,North,5,2.0,6.0,59,0.00,,,0.00,,2013-09-15 20:53:00,
2013-09-15 17:11:00,80.0,65.0,30.06,North,5,1.0,3.0,61,0.00,,,0.00,,2013-09-15 21:11:00,
2013-09-15 17:22:00,80.0,67.0,30.06,North,5,0.0,3.0,65,0.00,,,0.00,,2013-09-15 21:22:00,
2013-09-15 17:44:00,80.0,68.0,30.06,North,5,0.0,3.0,68,0.00,,,0.00,,2013-09-15 21:44:00,
2013-09-15 17:54:00,79.0,67.0,30.06,North,5,2.0,3.0,67,0.00,,,0.00,,2013-09-15 21:54:00,
2013-09-15 18:14:00,78.0,67.0,30.06,North,5,0.0,1.0,70,0.00,,,0.00,,2013-09-15 22:14:00,
2013-09-15 18:23:00,77.0,68.0,30.06,North,5,0.0,1.0,74,0.00,,,0.00,,2013-09-15 22:23:00,
2013-09-15 18:44:00,77.0,68.0,30.06,North,5,0.0,1.0,75,0.00,,,0.00,,2013-09-15 22:44:00,
2013-09-15 18:53:00,77.0,69.0,30.06,North,5,0.0,1.0,76,0.00,,,0.00,,2013-09-15 22:53:00,
2013-09-15 19:12:00,75.0,68.0,30.06,North,5,0.0,1.0,78,0.00,,,0.00,,2013-09-15 23:12:00,
2013-09-15 19:22:00,73.0,67.0,30.06,North,5,0.0,0.0,82,0.00,,,0.00,,2013-09-15 23:22:00,
2013-09-15 19:42:00,71.0,67.0,30.06,North,5,0.0,0.0,86,0.00,,,0.00,,2013-09-15 23:42:00,
2013-09-15 20:22:00,68.0,65.0,30.06,North,5,0.0,0.0,90,0.00,,,0.00,,2013-09-16 00:22:00,
2013-09-15 20:42:00,68.0,65.0,30.07,North,5,0.0,1.0,91,0.00,,,0.00,,2013-09-16 00:42:00,
2013-09-15 20:52:00,67.0,64.0,30.07,North,5,0.0,0.0,91,0.00,,,0.00,,2013-09-16 00:52:00,
2013-09-15 21:12:00,67.0,65.0,30.08,North,5,0.0,0.0,92,0.00,,,0.00,,2013-09-16 01:12:00,
2013-09-15 21:21:00,67.0,65.0,30.08,North,5,0.0,0.0,93,0.00,,,0.00,,2013-09-16 01:21:00,
2013-09-15 21:42:00,67.0,65.0,30.08,North,5,0.0,0.0,93,0.00,,,0.00,,2013-09-16 01:42:00,
2013-09-15 21:52:00,66.0,64.0,30.08,North,5,0.0,0.0,93,0.00,,,0.00,,2013-09-16 01:52:00,
2013-09-15 22:12:00,66.0,64.0,30.09,North,5,0.0,0.0,94,0.00,,,0.00,,2013-09-16 02:12:00,
2013-09-15 22:22:00,66.0,65.0,30.09,North,5,0.0,0.0,95,0.00,,,0.00,,2013-09-16 02:22:00,
2013-09-15 22:42:00,66.0,65.0,30.09,North,5,0.0,0.0,96,0.00,,,0.00,,2013-09-16 02:42:00,
2013-09-15 22:52:00,66.0,65.0,30.09,North,5,0.0,0.0,96,0.00,,,0.00,,2013-09-16 02:52:00,
2013-09-15 23:11:00,66.0,65.0,30.09,North,5,0.0,0.0,95,0.00,,,0.00,,2013-09-16 03:11:00,
2013-09-15 23:22:00,66.0,65.0,30.09,North,5,0.0,0.0,95,0.00,,,0.00,,2013-09-16 03:22:00,
2013-09-15 23:45:00,66.0,65.0,30.08,North,5,0.0,0.0,95,0.00,,,0.00,,2013-09-16 03:45:00,
2013-09-15 23:55:00,66.0,65.0,30.08,North,5,0.0,0.0,95,0.00,,,0.00,,2013-09-16 03:55:00,